No particular awareness of the weather is required.    There are no Weather-warnings


Meteo18 Weather Cam more information Meteo18 Weather Cam


Thunder radar more information blitzortung!


Rain radar more information rain snow radar


Visit our other weather sites:

Template documentation
and downloads

And another site



Weather Underground History page Text

Daily Summary for January 28, 2017 Units:  English    Metric   Both
« Previous Day
Next Day »
Daily Weekly Monthly Yearly Custom
  High: Low: Average:
Temperature: 45.9 °F 31.3 °F 41.9 °F
Dew Point: 43.5 °F 30.6 °F 39.2 °F
Humidity: 97 % 69 % 91 %
Wind Speed: 9 mph 0 mph 1.2 mph
Wind Gust: 10 mph - -
Wind:- - South
Pressure: 30.2 in 30 in -
Precipitation: 0.3 in    
Historical Graphs
 
 
Tabular Data for January 28, 2017
Time Temperature Dew Point Pressure Wind Wind Speed Wind Gust Humidity Rainfall Rate (Hourly)
00:07 45.9 °F 36.3 °F 30 in ESE 1 mph 6 mph 69 % 0 in
00:12 45.7 °F 36.5 °F 30 in SE 1 mph 6 mph 70 % 0 in
00:17 45.5 °F 36.3 °F 30 in SE 3 mph 7 mph 70 % 0 in
00:22 45.3 °F 36.1 °F 30 in ESE 2 mph 7 mph 70 % 0 in
00:32 45.3 °F 36.1 °F 30 in SE 1 mph 6 mph 70 % 0 in
00:42 45.7 °F 36.5 °F 30 in ESE 1 mph 5 mph 70 % 0 in
00:52 45.5 °F 36.3 °F 30 in Calm   5 mph 70 % 0 in
00:57 45.3 °F 36.1 °F 30 in Calm   4 mph 70 % 0 in
01:02 45.3 °F 36.1 °F 30 in Calm   3 mph 70 % 0 in
01:12 45.5 °F 36.3 °F 30 in Calm   3 mph 70 % 0 in
01:17 45.7 °F 36.5 °F 30 in East 3 mph 3 mph 70 % 0 in
01:22 45.7 °F 36.9 °F 30 in SE 3 mph 4 mph 71 % 0 in
01:27 45.7 °F 37.2 °F 30 in ESE 2 mph 7 mph 72 % 0 in
01:32 45.7 °F 37.2 °F 30 in SE 2 mph 7 mph 72 % 0 in
01:37 45.7 °F 37.6 °F 30 in SE 3 mph 7 mph 73 % 0 in
01:42 45.7 °F 37.6 °F 30 in SSE 1 mph 9 mph 73 % 0 in
01:47 45.3 °F 37.6 °F 30 in SE 1 mph 9 mph 74 % 0 in
01:52 45.3 °F 37.9 °F 30 in SE 9 mph 9 mph 75 % 0 in
01:57 45.3 °F 38.1 °F 30 in SSE 2 mph 7 mph 76 % 0 in
02:02 45.3 °F 38.1 °F 30 in South 4 mph 10 mph 76 % 0 in
02:07 45.3 °F 38.1 °F 30 in South 1 mph 10 mph 76 % 0 in
02:12 45.1 °F 38.3 °F 30 in SW 2 mph 10 mph 77 % 0 in
02:17 45 °F 38.1 °F 30 in Calm   7 mph 77 % 0 in
02:22 44.8 °F 38.3 °F 30 in ESE 4 mph 7 mph 78 % 0 in
02:27 44.6 °F 38.5 °F 30 in SSE 1 mph 7 mph 79 % 0 in
02:32 44.8 °F 38.3 °F 30 in ESE 3 mph 7 mph 78 % 0 in
02:37 44.8 °F 38.3 °F 30 in South 4 mph 5 mph 78 % 0 in
02:42 44.8 °F 38.7 °F 30 in South 2 mph 5 mph 79 % 0 in
02:47 44.8 °F 38.7 °F 30 in South 1 mph 5 mph 79 % 0 in
02:52 44.8 °F 38.3 °F 30 in SE 1 mph 5 mph 78 % 0 in
02:57 44.8 °F 38.3 °F 30 in SSE 1 mph 6 mph 78 % 0 in
03:02 45 °F 38.5 °F 30 in Calm   6 mph 78 % 0 in
03:12 45 °F 38.5 °F 30 in SSE 2 mph 5 mph 78 % 0 in
03:17 45.1 °F 38.3 °F 30 in SE 2 mph 4 mph 77 % 0 in
03:22 45.1 °F 38.3 °F 30 in SSE 2 mph 6 mph 77 % 0 in
03:27 45.1 °F 38.3 °F 30 in ESE 2 mph 6 mph 77 % 0 in
03:32 45.1 °F 38.7 °F 30 in ESE 3 mph 6 mph 78 % 0 in
03:37 45.1 °F 38.7 °F 30 in ESE 4 mph 6 mph 78 % 0 in
03:42 45.1 °F 38.7 °F 30 in ESE 3 mph 7 mph 78 % 0 in
03:47 45 °F 38.5 °F 30 in ESE 2 mph 7 mph 78 % 0 in
03:57 45.1 °F 38.3 °F 30 in SE 4 mph 7 mph 77 % 0 in
04:02 45.3 °F 38.5 °F 30 in SE 3 mph 8 mph 77 % 0 in
04:17 45.1 °F 39 °F 30 in ESE 4 mph 9 mph 79 % 0 in
04:22 45 °F 39.2 °F 30 in SSE 1 mph 9 mph 80 % 0 in
04:27 44.8 °F 39 °F 30 in SE 4 mph 9 mph 80 % 0 in
04:32 44.6 °F 39.2 °F 30 in Calm   7 mph 81 % 0 in
04:37 44.4 °F 39.2 °F 30 in ESE 3 mph 8 mph 82 % 0 in
04:42 44.4 °F 39.2 °F 30 in SSE 1 mph 9 mph 82 % 0 in
04:47 44.4 °F 39.2 °F 30 in SE 2 mph 9 mph 82 % 0 in
04:52 44.2 °F 39.4 °F 30 in South 1 mph 9 mph 83 % 0 in
04:57 44.2 °F 39.4 °F 30 in SSW 2 mph 9 mph 83 % 0 in
05:02 44.1 °F 39.2 °F 30 in Calm   5 mph 83 % 0 in
05:07 44.1 °F 39.2 °F 30 in SE 1 mph 5 mph 83 % 0 in
05:12 44.2 °F 39.7 °F 30 in WSW 3 mph 5 mph 84 % 0 in
05:17 44.2 °F 39.7 °F 30 in SSE 2 mph 5 mph 84 % 0 in
05:22 44.2 °F 39.7 °F 30 in SE 1 mph 6 mph 84 % 0.01 in
05:27 44.2 °F 40.1 °F 30 in SSE 3 mph 6 mph 85 % 0.01 in
05:32 44.2 °F 40.1 °F 30 in South 1 mph 6 mph 85 % 0.01 in
05:42 44.1 °F 40.1 °F 30 in SE 1 mph 4 mph 86 % 0.01 in
05:47 44.1 °F 40.1 °F 30 in Calm   4 mph 86 % 0.01 in
05:52 44.1 °F 39.9 °F 30 in Calm   4 mph 85 % 0.01 in
05:57 44.2 °F 40.1 °F 30 in SE 1 mph 4 mph 85 % 0.01 in
06:02 44.1 °F 39.9 °F 30 in SE 1 mph 4 mph 85 % 0.01 in
06:12 43.9 °F 39.9 °F 30 in SSE 1 mph 7 mph 86 % 0.01 in
06:17 43.9 °F 39.9 °F 30 in SW 4 mph 7 mph 86 % 0.01 in
06:22 43.7 °F 40.1 °F 30 in South 1 mph 4 mph 87 % 0 in
06:32 43.5 °F 40.3 °F 30 in SE 1 mph 4 mph 88 % 0 in
06:37 43.3 °F 40.1 °F 30 in Calm   5 mph 88 % 0.02 in
06:42 43.2 °F 40.1 °F 30 in ESE 1 mph 5 mph 89 % 0.02 in
06:47 43 °F 39.9 °F 30 in Calm   5 mph 89 % 0.02 in
06:52 43 °F 39.9 °F 30 in ESE 2 mph 3 mph 89 % 0.03 in
07:02 42.6 °F 39.9 °F 30 in SE 2 mph 3 mph 90 % 0.03 in
07:12 42.4 °F 39.9 °F 30 in SE 1 mph 4 mph 91 % 0.06 in
07:17 42.3 °F 39.7 °F 30 in Calm   4 mph 91 % 0.06 in
07:22 42.1 °F 39.6 °F 30 in Calm   3 mph 91 % 0.06 in
07:32 41.7 °F 39.6 °F 30 in Calm   2 mph 92 % 0.06 in
07:37 41.7 °F 39.6 °F 30 in ENE 1 mph 2 mph 92 % 0.06 in
07:42 41.9 °F 39.7 °F 30 in Calm   2 mph 92 % 0.05 in
07:47 41.7 °F 39.6 °F 30 in Calm   2 mph 92 % 0.05 in
07:52 41.5 °F 39.4 °F 30 in Calm   2 mph 92 % 0.05 in
07:57 41.5 °F 39.7 °F 30 in Calm   2 mph 93 % 0.05 in
08:02 41.7 °F 39.9 °F 30 in SSE 2 mph 2 mph 93 % 0.05 in
08:07 41.7 °F 39.9 °F 30 in Calm   2 mph 93 % 0.05 in
08:12 41.7 °F 39.9 °F 30 in Calm   4 mph 93 % 0.05 in
08:17 41.7 °F 39.9 °F 30 in Calm   4 mph 93 % 0.05 in
08:22 41.7 °F 39.9 °F 30 in Calm   4 mph 93 % 0.06 in
08:32 41.7 °F 40.1 °F 30 in Calm   2 mph 94 % 0.06 in
08:37 41.7 °F 40.1 °F 30 in Calm   2 mph 94 % 0.06 in
08:42 41.7 °F 40.1 °F 30 in Calm   2 mph 94 % 0.06 in
08:47 41.9 °F 40.3 °F 30 in Calm   2 mph 94 % 0.06 in
08:52 41.9 °F 40.3 °F 30 in Calm   2 mph 94 % 0.05 in
08:57 41.9 °F 40.3 °F 30 in Calm   2 mph 94 % 0.05 in
09:02 41.7 °F 40.1 °F 30 in Calm   2 mph 94 % 0.03 in
09:07 41.9 °F 40.3 °F 30 in East 2 mph 2 mph 94 % 0.03 in
09:12 41.9 °F 40.3 °F 30 in Calm   2 mph 94 % 0.02 in
09:17 41.7 °F 40.1 °F 30 in Calm   2 mph 94 % 0.02 in
09:22 41.7 °F 40.1 °F 30 in Calm   2 mph 94 % 0.01 in
09:32 41.7 °F 40.1 °F 30 in Calm   2 mph 94 % 0.01 in
09:42 41.5 °F 39.9 °F 30 in Calm   2 mph 94 % 0.02 in
09:47 41.9 °F 40.6 °F 30 in Calm   2 mph 95 % 0.02 in
09:52 42.1 °F 40.8 °F 30 in Calm   3 mph 95 % 0.02 in
09:57 42.1 °F 40.8 °F 30 in Calm   3 mph 95 % 0.02 in
10:02 42.3 °F 41 °F 30 in Calm   2 mph 95 % 0.02 in
10:12 42.4 °F 41.2 °F 30 in Calm   2 mph 95 % 0.03 in
10:22 42.6 °F 41.4 °F 30.1 in SE 1 mph 1 mph 95 % 0.03 in
10:32 42.6 °F 41.4 °F 30.1 in SE 2 mph 2 mph 95 % 0.03 in
10:42 42.8 °F 41.5 °F 30.1 in SSE 1 mph 2 mph 95 % 0.02 in
10:47 43 °F 41.7 °F 30.1 in Calm   2 mph 95 % 0.02 in
10:52 43 °F 41.7 °F 30.1 in SSE 2 mph 3 mph 95 % 0.02 in
10:57 43 °F 41.7 °F 30.1 in SSW 1 mph 3 mph 95 % 0.02 in
11:02 42.8 °F 41.5 °F 30.1 in SW 2 mph 5 mph 95 % 0.02 in
11:12 42.8 °F 41.5 °F 30.1 in SW 1 mph 4 mph 95 % 0.01 in
11:22 43 °F 41.9 °F 30.1 in WSW 1 mph 3 mph 96 % 0 in
11:27 43 °F 41.9 °F 30.1 in SW 2 mph 3 mph 96 % 0 in
11:32 43 °F 41.9 °F 30.1 in SW 1 mph 4 mph 96 % 0 in
11:37 43.2 °F 42.1 °F 30.1 in Calm   4 mph 96 % 0 in
11:42 43.2 °F 42.1 °F 30.1 in Calm   4 mph 96 % 0 in
11:47 43.2 °F 41.9 °F 30.1 in Calm   4 mph 95 % 0 in
11:52 43.2 °F 41.9 °F 30.1 in Calm   3 mph 95 % 0.01 in
12:02 43 °F 41.9 °F 30.1 in SW 1 mph 2 mph 96 % 0.01 in
12:12 43 °F 41.7 °F 30.1 in SSW 1 mph 2 mph 95 % 0.02 in
12:17 43 °F 41.9 °F 30.1 in SSW 1 mph 3 mph 96 % 0.02 in
12:22 43 °F 41.9 °F 30.1 in SSW 2 mph 3 mph 96 % 0.02 in
12:32 43.2 °F 42.1 °F 30.1 in SSW 4 mph 4 mph 96 % 0.02 in
12:37 43.2 °F 42.1 °F 30.1 in SSW 2 mph 6 mph 96 % 0.02 in
12:42 43.2 °F 42.1 °F 30.1 in SSW 1 mph 6 mph 96 % 0.02 in
12:47 43.2 °F 42.1 °F 30.1 in SSW 1 mph 5 mph 96 % 0.02 in
12:52 43 °F 41.9 °F 30.1 in SW 1 mph 5 mph 96 % 0.02 in
12:57 43 °F 41.9 °F 30.1 in SW 1 mph 4 mph 96 % 0.02 in
13:02 43.2 °F 42.1 °F 30.1 in Calm   3 mph 96 % 0.03 in
13:07 43.2 °F 42.1 °F 30.1 in SW 1 mph 3 mph 96 % 0.03 in
13:12 43 °F 41.9 °F 30.1 in SW 2 mph 3 mph 96 % 0.03 in
13:22 43.2 °F 42.1 °F 30.1 in South 2 mph 5 mph 96 % 0.04 in
13:27 43.2 °F 42.1 °F 30.1 in SSW 2 mph 5 mph 96 % 0.05 in
13:32 43 °F 41.9 °F 30.1 in SSW 2 mph 5 mph 96 % 0.05 in
13:37 43 °F 41.9 °F 30.1 in SSW 1 mph 4 mph 96 % 0.05 in
13:42 43.2 °F 42.1 °F 30.1 in SSW 1 mph 4 mph 96 % 0.05 in
13:47 43.2 °F 42.1 °F 30.1 in South 1 mph 3 mph 96 % 0.05 in
13:52 43.2 °F 42.1 °F 30.1 in SSE 1 mph 3 mph 96 % 0.05 in
13:57 43.3 °F 42.3 °F 30.1 in Calm   3 mph 96 % 0.04 in
14:02 43.2 °F 42.1 °F 30.1 in SSW 1 mph 3 mph 96 % 0.04 in
14:07 43.2 °F 42.1 °F 30.1 in SSW 1 mph 3 mph 96 % 0.03 in
14:12 43.3 °F 42.6 °F 30.1 in SSW 1 mph 3 mph 97 % 0.03 in
14:17 43.3 °F 42.3 °F 30.1 in SW 2 mph 4 mph 96 % 0.03 in
14:22 43.3 °F 42.3 °F 30.1 in SSW 3 mph 4 mph 96 % 0.02 in
14:27 43.5 °F 42.4 °F 30.1 in SSW 2 mph 4 mph 96 % 0.03 in
14:32 43.5 °F 42.8 °F 30.1 in SSW 1 mph 4 mph 97 % 0.03 in
14:37 43.9 °F 43.2 °F 30.1 in SSW 2 mph 5 mph 97 % 0.02 in
14:42 43.9 °F 43.2 °F 30.1 in South 1 mph 5 mph 97 % 0.03 in
14:47 43.9 °F 42.8 °F 30.1 in South 2 mph 5 mph 96 % 0.03 in
14:52 43.9 °F 42.8 °F 30.1 in SSW 2 mph 5 mph 96 % 0.03 in
14:57 43.9 °F 42.8 °F 30.1 in SSW 1 mph 2 mph 96 % 0.03 in
15:02 43.9 °F 43.2 °F 30.1 in SSW 3 mph 3 mph 97 % 0.03 in
15:12 44.1 °F 43.3 °F 30.1 in SSW 2 mph 4 mph 97 % 0.03 in
15:17 44.1 °F 43.3 °F 30.1 in South 2 mph 5 mph 97 % 0.03 in
15:22 44.1 °F 43.3 °F 30.1 in SW 3 mph 5 mph 97 % 0.02 in
15:27 44.1 °F 43.3 °F 30.1 in SW 2 mph 6 mph 97 % 0.02 in
15:32 44.1 °F 43.3 °F 30.1 in SW 2 mph 6 mph 97 % 0.02 in
15:37 44.1 °F 43.3 °F 30.1 in SW 4 mph 4 mph 97 % 0.02 in
15:42 44.2 °F 43.5 °F 30.1 in SW 4 mph 5 mph 97 % 0.02 in
15:47 44.1 °F 43.3 °F 30.1 in WSW 3 mph 5 mph 97 % 0.02 in
15:52 44.2 °F 43.5 °F 30.1 in SW 3 mph 5 mph 97 % 0.02 in
15:57 44.1 °F 43.3 °F 30.1 in SSW 2 mph 6 mph 97 % 0.01 in
16:02 44.1 °F 43.3 °F 30.1 in SSW 1 mph 6 mph 97 % 0.01 in
16:07 44.1 °F 43.3 °F 30.1 in SW 1 mph 5 mph 97 % 0.01 in
16:12 44.1 °F 43.3 °F 30.1 in SW 2 mph 5 mph 97 % 0.01 in
16:17 44.1 °F 43.3 °F 30.1 in SSW 3 mph 5 mph 97 % 0 in
16:22 44.2 °F 43.5 °F 30.1 in SW 4 mph 4 mph 97 % 0 in
16:27 44.2 °F 43.5 °F 30.1 in SW 5 mph 5 mph 97 % 0 in
16:32 44.2 °F 43.5 °F 30.1 in SW 2 mph 8 mph 97 % 0 in
16:37 44.2 °F 43.2 °F 30.1 in SW 3 mph 8 mph 96 % 0 in
16:42 44.2 °F 43.2 °F 30.1 in SW 5 mph 8 mph 96 % 0 in
16:47 44.2 °F 43.2 °F 30.1 in SSW 3 mph 8 mph 96 % 0 in
16:52 44.1 °F 43 °F 30.1 in SW 2 mph 6 mph 96 % 0 in
16:57 43.9 °F 42.8 °F 30.1 in SW 2 mph 6 mph 96 % 0 in
17:02 43.9 °F 42.8 °F 30.1 in SW 2 mph 5 mph 96 % 0 in
17:07 43.9 °F 42.8 °F 30.1 in SW 2 mph 4 mph 96 % 0 in
17:12 43.9 °F 42.8 °F 30.1 in SW 2 mph 4 mph 96 % 0 in
17:17 43.7 °F 42.6 °F 30.1 in SW 4 mph 4 mph 96 % 0 in
17:22 43.7 °F 42.6 °F 30.1 in SW 3 mph 4 mph 96 % 0 in
17:27 43.5 °F 42.4 °F 30.1 in SW 2 mph 5 mph 96 % 0 in
17:32 43.3 °F 42.3 °F 30.1 in SW 2 mph 5 mph 96 % 0 in
17:37 43.3 °F 42.3 °F 30.1 in SSW 2 mph 5 mph 96 % 0 in
17:42 43.2 °F 42.1 °F 30.1 in SW 2 mph 3 mph 96 % 0 in
17:52 43.2 °F 42.4 °F 30.1 in SSW 2 mph 4 mph 97 % 0 in
17:57 43.2 °F 42.1 °F 30.1 in WSW 2 mph 6 mph 96 % 0 in
18:02 43 °F 41.9 °F 30.1 in SW 2 mph 6 mph 96 % 0 in
18:12 43 °F 42.3 °F 30.1 in SW 2 mph 6 mph 97 % 0 in
18:17 43 °F 42.3 °F 30.1 in SW 2 mph 4 mph 97 % 0 in
18:22 42.8 °F 42.1 °F 30.1 in WSW 2 mph 4 mph 97 % 0 in
18:32 42.4 °F 41.4 °F 30.1 in Calm   4 mph 96 % 0 in
18:42 41.2 °F 39.9 °F 30.1 in Calm   2 mph 95 % 0 in
18:47 40.6 °F 39.6 °F 30.1 in Calm     96 % 0 in
18:57 40.3 °F 39.2 °F 30.1 in Calm     96 % 0 in
19:02 40.3 °F 39.6 °F 30.1 in Calm     97 % 0 in
19:07 40.3 °F 39.6 °F 30.1 in Calm     97 % 0 in
19:12 40.3 °F 39.6 °F 30.1 in Calm     97 % 0 in
19:17 39.7 °F 38.7 °F 30.1 in Calm     96 % 0 in
19:22 39.2 °F 38.1 °F 30.1 in Calm     96 % 0 in
19:27 38.7 °F 37.6 °F 30.1 in Calm     96 % 0 in
19:32 38.3 °F 37.2 °F 30.1 in Calm     96 % 0 in
19:37 37.9 °F 36.9 °F 30.1 in Calm     96 % 0 in
19:42 37.8 °F 36.7 °F 30.1 in Calm     96 % 0 in
19:47 37.6 °F 36.5 °F 30.1 in Calm     96 % 0 in
19:52 37.2 °F 36.1 °F 30.1 in Calm     96 % 0 in
19:57 36.9 °F 35.8 °F 30.1 in Calm     96 % 0 in
20:02 36.7 °F 35.6 °F 30.1 in Calm     96 % 0 in
20:07 36.3 °F 35.2 °F 30.1 in Calm     96 % 0 in
20:12 36.1 °F 35.1 °F 30.2 in Calm     96 % 0 in
20:17 36 °F 35.2 °F 30.1 in Calm     97 % 0 in
20:22 36.3 °F 35.6 °F 30.2 in Calm     97 % 0 in
20:27 36.7 °F 36 °F 30.2 in Calm     97 % 0 in
20:32 36.5 °F 35.8 °F 30.2 in Calm     97 % 0 in
20:37 36.7 °F 36 °F 30.2 in Calm     97 % 0 in
20:42 36.7 °F 36 °F 30.2 in Calm     97 % 0 in
20:47 36.7 °F 36 °F 30.2 in Calm     97 % 0.01 in
20:52 36.5 °F 35.8 °F 30.2 in Calm     97 % 0.01 in
21:02 36.3 °F 35.6 °F 30.2 in Calm     97 % 0.01 in
21:07 36.1 °F 35.4 °F 30.2 in Calm     97 % 0.01 in
21:12 36 °F 35.2 °F 30.2 in Calm     97 % 0.01 in
21:17 35.8 °F 35.1 °F 30.2 in Calm     97 % 0.01 in
21:22 35.2 °F 34.5 °F 30.2 in Calm     97 % 0.01 in
21:27 35.2 °F 34.5 °F 30.2 in Calm     97 % 0.01 in
21:37 35.1 °F 34.3 °F 30.2 in Calm     97 % 0 in
21:47 34.5 °F 33.8 °F 30.2 in Calm     97 % 0 in
21:52 34.5 °F 33.8 °F 30.2 in Calm     97 % 0 in
21:57 34.9 °F 34.2 °F 30.2 in Calm     97 % 0 in
22:02 34.3 °F 33.6 °F 30.2 in Calm     97 % 0 in
22:12 33.6 °F 32.9 °F 30.2 in Calm     97 % 0 in
22:17 33.4 °F 32.7 °F 30.2 in Calm     97 % 0 in
22:22 33.1 °F 32.4 °F 30.2 in Calm     97 % 0 in
22:27 33.1 °F 32.4 °F 30.2 in Calm     97 % 0 in
22:32 32.9 °F 32.2 °F 30.2 in Calm     97 % 0 in
22:37 32.7 °F 32 °F 30.2 in Calm     97 % 0 in
22:42 32.7 °F 32 °F 30.2 in Calm     97 % 0 in
22:47 32.7 °F 32 °F 30.2 in Calm     97 % 0 in
22:52 32.7 °F 32 °F 30.2 in Calm     97 % 0 in
22:57 32.9 °F 32.2 °F 30.2 in Calm     97 % 0 in
23:02 32.7 °F 32 °F 30.2 in Calm     97 % 0 in
23:07 32.4 °F 31.6 °F 30.2 in Calm     97 % 0 in
23:12 32.2 °F 31.5 °F 30.2 in Calm     97 % 0 in
23:17 31.8 °F 31.1 °F 30.2 in Calm     97 % 0 in
23:22 31.8 °F 31.1 °F 30.2 in Calm     97 % 0 in
23:37 31.8 °F 31.1 °F 30.2 in Calm     97 % 0 in
23:42 31.6 °F 30.9 °F 30.2 in Calm     97 % 0 in
23:52 31.3 °F 30.6 °F 30.2 in Calm   1 mph 97 % 0 in
23:57 31.3 °F 30.6 °F 30.2 in Calm   1 mph 97 % 0 in
Meteo18
Compliments of Weather Underground - 4 mb

Script developed by  Jim McMurry - jmcmurry@mwt.net Adapted for the template by  Wim van der Kuil - Leuven-Template.eu

You find our weather info also at:

European Weather Network

Weather Underground

Equipment we use:

Weather-station
Davis Vue

Weather-program
Meteohub

Weather-server
Raspberry PI 2 B+

Provider
1 and 1

Davis Vue

Meteohub

Raspberry PI 2 B+

1 and 1